| time (UTC) | temp F | wind direction | speed MPH | gust MPH | rain 1hr in | rain 24hr in | rain mn in | humidity % | barometer mb |
| 20260904221526 | 94 | 56 | 0.0 | 0.0 | 0.01 | 0.11 | 0.11 | 60 | 1010.3 |
| 20260904220028 | 94 | 20 | 0.0 | 0.0 | 0.00 | 0.10 | 0.10 | 60 | 1010.5 |
| 20260904214518 | 92 | 268 | 0.0 | 0.0 | 0.00 | 0.10 | 0.10 | 61 | 1010.5 |
| 20260904213018 | 92 | 277 | 0.0 | 0.0 | 0.00 | 0.10 | 0.10 | 64 | 1010.5 |
| 20260904211516 | 91 | 278 | 0.0 | 0.0 | 0.00 | 0.10 | 0.10 | 64 | 1010.7 |
| 20260904210019 | 92 | 288 | 0.0 | 0.0 | 0.00 | 0.10 | 0.10 | 64 | 1011.0 |
| 20260904204511 | 91 | 299 | 0.0 | 0.0 | 0.00 | 0.12 | 0.10 | 66 | 1011.3 |
| 20260904203010 | 88 | 244 | 0.0 | 0.0 | 0.00 | 0.12 | 0.10 | 73 | 1011.6 |
| 20260904201510 | 87 | 264 | 0.0 | 0.0 | 0.00 | 0.12 | 0.10 | 76 | 1011.8 |
| 20260904200018 | 84 | 260 | 0.0 | 0.0 | 0.00 | 0.12 | 0.10 | 82 | 1011.9 |
| 20260904194526 | 81 | 308 | 0.0 | 0.0 | 0.00 | 0.12 | 0.10 | 86 | 1012.0 |
| 20260904193010 | 80 | 308 | 0.0 | 0.0 | 0.00 | 0.12 | 0.10 | 92 | 1011.9 |
| 20260904191514 | 79 | 308 | 0.0 | 0.0 | 0.00 | 0.12 | 0.10 | 95 | 1012.3 |
| 20260904190008 | 78 | 308 | 0.0 | 0.0 | 0.00 | 0.12 | 0.10 | 95 | 1012.6 |
| 20260904184507 | 77 | 308 | 0.0 | 0.0 | 0.00 | 0.22 | 0.10 | 94 | 1013.0 |
| 20260904183007 | 76 | 308 | 0.0 | 2.0 | 0.04 | 0.22 | 0.10 | 94 | 1013.0 |
| 20260904181506 | 76 | 308 | 0.0 | 2.0 | 0.10 | 0.22 | 0.10 | 94 | 1013.4 |
| 20260904180006 | 74 | 309 | 1.0 | 3.0 | 0.10 | 0.22 | 0.10 | 92 | 1013.6 |
| 20260904174506 | 74 | 283 | 2.0 | 9.0 | 0.10 | 0.22 | 0.10 | 90 | 1013.4 |
| 20260904173102 | 78 | 228 | 4.0 | 11.0 | 0.06 | 0.18 | 0.06 | 80 | 1013.9 |
| 20260904171604 | 85 | 165 | 0.0 | 0.0 | 0.00 | 0.12 | 0.00 | 72 | 1014.1 |
| 20260904170056 | 90 | 161 | 0.0 | 0.0 | 0.00 | 0.12 | 0.00 | 76 | 1013.5 |
| 20260904164552 | 90 | 88 | 0.0 | 0.0 | 0.00 | 0.12 | 0.00 | 73 | 1013.1 |
| 20260904163103 | 90 | 89 | 0.0 | 0.0 | 0.00 | 0.12 | 0.00 | 72 | 1013.2 |
| 20260904161547 | 90 | 250 | 0.0 | 0.0 | 0.00 | 0.12 | 0.00 | 73 | 1013.0 |
| 20260904160044 | 89 | 36 | 0.0 | 0.0 | 0.00 | 0.12 | 0.00 | 77 | 1012.8 |
| 20260904154542 | 88 | 35 | 0.0 | 0.0 | 0.00 | 0.12 | 0.00 | 79 | 1012.8 |
| 20260904153045 | 87 | 26 | 0.0 | 0.0 | 0.00 | 0.12 | 0.00 | 81 | 1012.8 |
| 20260904151536 | 86 | 29 | 0.0 | 0.0 | 0.00 | 0.12 | 0.00 | 85 | 1012.7 |
| 20260904150032 | 85 | 30 | 0.0 | 0.0 | 0.00 | 0.12 | 0.00 | 91 | 1012.8 |
| 20260904144525 | 82 | 30 | 0.0 | 0.0 | 0.00 | 0.12 | 0.00 | 94 | 1012.8 |
| 20260904143024 | 81 | 30 | 0.0 | 0.0 | 0.00 | 0.12 | 0.00 | 96 | 1012.8 |
| 20260904141520 | 81 | 30 | 0.0 | 0.0 | 0.00 | 0.12 | 0.00 | 97 | 1012.7 |
| 20260904140018 | 80 | 30 | 0.0 | 0.0 | 0.00 | 0.12 | 0.00 | 97 | 1012.6 |
| 20260904134515 | 80 | 30 | 0.0 | 0.0 | 0.00 | 0.12 | 0.00 | 97 | 1012.5 |
| 20260904133015 | 80 | 30 | 0.0 | 0.0 | 0.00 | 0.12 | 0.00 | 97 | 1012.6 |
| 20260904131512 | 79 | 30 | 0.0 | 0.0 | 0.00 | 0.12 | 0.00 | 97 | 1012.5 |
| 20260904130011 | 79 | 30 | 0.0 | 0.0 | 0.00 | 0.12 | 0.00 | 97 | 1012.4 |
| 20260904124508 | 79 | 30 | 0.0 | 0.0 | 0.00 | 0.12 | 0.00 | 97 | 1012.1 |
| 20260904123007 | 79 | 30 | 0.0 | 0.0 | 0.00 | 0.12 | 0.00 | 97 | 1011.8 |
| 20260904121505 | 79 | 30 | 0.0 | 0.0 | 0.00 | 0.12 | 0.00 | 97 | 1011.6 |
| 20260904120005 | 79 | 30 | 0.0 | 0.0 | 0.00 | 0.12 | 0.00 | 97 | 1011.5 |
| 20260904114600 | 79 | 30 | 0.0 | 0.0 | 0.00 | 0.12 | 0.00 | 97 | 1011.5 |
| 20260904113102 | 79 | 30 | 0.0 | 0.0 | 0.00 | 0.12 | 0.00 | 97 | 1011.4 |
| 20260904111558 | 79 | 30 | 0.0 | 0.0 | 0.00 | 0.12 | 0.00 | 97 | 1011.5 |
| 20260904110058 | 79 | 30 | 0.0 | 0.0 | 0.00 | 0.12 | 0.00 | 97 | 1011.4 |
| 20260904104600 | 79 | 30 | 0.0 | 0.0 | 0.00 | 0.12 | 0.00 | 96 | 1011.3 |
| 20260904103054 | 79 | 30 | 0.0 | 0.0 | 0.00 | 0.12 | 0.00 | 96 | 1011.0 |
| 20260904101606 | 79 | 30 | 0.0 | 0.0 | 0.00 | 0.12 | 0.00 | 96 | 1010.9 |
| 20260904100059 | 79 | 30 | 0.0 | 0.0 | 0.00 | 0.12 | 0.00 | 96 | 1011.0 |
| 20260904094554 | 79 | 30 | 0.0 | 0.0 | 0.00 | 0.12 | 0.00 | 96 | 1011.0 |
| 20260904093111 | 79 | 30 | 0.0 | 0.0 | 0.00 | 0.12 | 0.00 | 96 | 1010.9 |
| 20260904091552 | 79 | 30 | 0.0 | 0.0 | 0.00 | 0.12 | 0.00 | 96 | 1010.8 |
| 20260904090054 | 79 | 30 | 0.0 | 0.0 | 0.00 | 0.12 | 0.00 | 96 | 1010.8 |
| 20260904084550 | 80 | 30 | 0.0 | 0.0 | 0.00 | 0.12 | 0.00 | 96 | 1010.8 |
| 20260904083052 | 79 | 30 | 0.0 | 0.0 | 0.00 | 0.12 | 0.00 | 96 | 1010.8 |
| 20260904081548 | 80 | 30 | 0.0 | 0.0 | 0.00 | 0.12 | 0.00 | 96 | 1010.8 |
| 20260904080047 | 79 | 30 | 0.0 | 0.0 | 0.00 | 0.12 | 0.00 | 96 | 1010.8 |
| 20260904074548 | 80 | 30 | 0.0 | 0.0 | 0.00 | 0.12 | 0.00 | 96 | 1011.0 |
| 20260904073045 | 80 | 30 | 0.0 | 0.0 | 0.00 | 0.12 | 0.00 | 96 | 1011.2 |
| 20260904071546 | 80 | 30 | 0.0 | 0.0 | 0.00 | 0.12 | 0.00 | 96 | 1011.2 |
| 20260904070048 | 80 | 30 | 0.0 | 0.0 | 0.00 | 0.12 | 0.00 | 96 | 1011.1 |
| 20260904064546 | 80 | 30 | 0.0 | 0.0 | 0.00 | 0.12 | 0.00 | 96 | 1011.3 |
| 20260904063043 | 80 | 30 | 0.0 | 0.0 | 0.00 | 0.12 | 0.00 | 96 | 1011.3 |
| 20260904061550 | 80 | 30 | 0.0 | 0.0 | 0.00 | 0.12 | 0.00 | 96 | 1011.3 |
| 20260904060042 | 80 | 30 | 0.0 | 0.0 | 0.00 | 0.12 | 0.00 | 96 | 1011.4 |
| 20260904054540 | 80 | 30 | 0.0 | 0.0 | 0.00 | 0.13 | 0.00 | 96 | 1011.3 |
| 20260904053039 | 80 | 30 | 0.0 | 0.0 | 0.00 | 0.13 | 0.00 | 96 | 1011.3 |
| 20260904051546 | 79 | 30 | 0.0 | 0.0 | 0.00 | 0.13 | 0.00 | 96 | 1011.3 |
| 20260904050040 | 79 | 30 | 0.0 | 0.0 | 0.00 | 0.13 | 0.00 | 96 | 1011.2 |
| 20260904044537 | 80 | 30 | 0.0 | 0.0 | 0.00 | 0.13 | 0.13 | 96 | 1011.1 |
| 20260904043036 | 79 | 30 | 0.0 | 0.0 | 0.00 | 0.13 | 0.13 | 96 | 1011.1 |
| 20260904041540 | 79 | 30 | 0.0 | 0.0 | 0.00 | 0.13 | 0.13 | 96 | 1011.2 |
| 20260904040036 | 79 | 30 | 0.0 | 0.0 | 0.00 | 0.13 | 0.13 | 96 | 1011.1 |
| 20260904034548 | 79 | 30 | 0.0 | 0.0 | 0.00 | 0.13 | 0.13 | 96 | 1011.1 |
| 20260904033034 | 79 | 30 | 0.0 | 0.0 | 0.00 | 0.13 | 0.13 | 96 | 1011.1 |
| 20260904031533 | 79 | 30 | 0.0 | 0.0 | 0.00 | 0.13 | 0.13 | 96 | 1011.2 |
| 20260904030035 | 79 | 30 | 0.0 | 0.0 | 0.00 | 0.13 | 0.13 | 96 | 1011.2 |
| 20260904024533 | 79 | 30 | 0.0 | 0.0 | 0.00 | 0.13 | 0.13 | 96 | 1011.1 |
| 20260904023032 | 79 | 30 | 0.0 | 0.0 | 0.00 | 0.13 | 0.13 | 95 | 1011.0 |
| 20260904021533 | 79 | 30 | 0.0 | 0.0 | 0.00 | 0.13 | 0.13 | 95 | 1010.7 |
| 20260904020031 | 79 | 30 | 0.0 | 0.0 | 0.00 | 0.13 | 0.13 | 95 | 1010.6 |
| 20260904014531 | 79 | 30 | 0.0 | 0.0 | 0.00 | 0.15 | 0.13 | 95 | 1010.5 |
| 20260904013033 | 79 | 30 | 0.0 | 0.0 | 0.00 | 0.15 | 0.13 | 95 | 1010.3 |
| 20260904011555 | 79 | 30 | 0.0 | 0.0 | 0.00 | 0.15 | 0.13 | 94 | 1010.3 |
| 20260904010031 | 80 | 30 | 0.0 | 0.0 | 0.00 | 0.15 | 0.13 | 94 | 1010.2 |
| 20260904004530 | 80 | 30 | 0.0 | 0.0 | 0.00 | 0.15 | 0.13 | 94 | 1010.1 |
| 20260904003028 | 80 | 30 | 0.0 | 0.0 | 0.00 | 0.15 | 0.13 | 93 | 1010.2 |
| 20260904001528 | 81 | 30 | 0.0 | 0.0 | 0.00 | 0.15 | 0.13 | 92 | 1010.4 |
| 20260904000037 | 81 | 30 | 0.0 | 0.0 | 0.00 | 0.15 | 0.13 | 91 | 1010.5 |
| 20260903234536 | 81 | 30 | 0.0 | 0.0 | 0.00 | 0.15 | 0.13 | 92 | 1010.6 |
| 20260903233024 | 80 | 30 | 0.0 | 0.0 | 0.00 | 0.15 | 0.13 | 93 | 1010.6 |
| 20260903231524 | 79 | 30 | 0.0 | 0.0 | 0.00 | 0.15 | 0.13 | 94 | 1010.7 |
| 20260903230037 | 79 | 30 | 0.0 | 0.0 | 0.00 | 0.15 | 0.13 | 95 | 1010.7 |
| 20260903224523 | 79 | 30 | 0.0 | 0.0 | 0.00 | 0.15 | 0.13 | 94 | 1010.7 |
| 20260903223022 | 79 | 30 | 0.0 | 0.0 | 0.00 | 0.15 | 0.13 | 94 | 1010.6 |